Tracking 26955 objects as of 3-Feb-2023
HD Live streaming from Space Station
objects crossing your sky now

DELTA 1 DEB

Track DELTA 1 DEB now!
10-day predictions


NORAD ID: 26829
Int'l Code: 1975-052KH
Perigee: 1,036.1 km
Apogee: 1,425.2 km
Inclination: 99.7 °
Period: 109.9 minutes
Semi major axis: 7601 km
RCS: 0.0065 m2 (small)
Launch date: June 12, 1975
Source: United States (US)
Launch site: AIR FORCE WESTERN TEST RANGE (AFWTR)

Note: This is SATELLITE DEBRIS
Your satellite tracking list
Your tracking list is empty




NASA's NSSDC Master Catalog

Two Line Element Set (TLE):
1 26829U 75052KH  23033.77358178 -.00000078  00000-0 -93581-4 0  9990
2 26829  99.6584 332.9064 0255980 222.7181 165.6269 13.09911533355181
Source of the keplerian elements: AFSPC